No particular awareness of the weather is required.    There are no Weather-warnings


Meteo18 Weather Cam more information Meteo18 Weather Cam


Thunder radar more information blitzortung!


Rain radar more information rain snow radar


Visit our other weather sites:

Template documentation
and downloads

And another site



Weather Underground History page Text

Daily Summary for August 10, 2016 Units:  Metric    English   Both
« Previous Day
Next Day »
Daily Weekly Monthly Yearly Custom
  High: Low: Average:
Temperature: 20.2 °C 9.7 °C 15.6 °C
Dew Point: 9.8 °C 6.2 °C 7.4 °C
Humidity: 82 % 42 % 59 %
Wind Speed: 20.9 km/h 0.0 km/h 5.7 km/h
Wind Gust: 29.0 km/h - -
Wind:- - West
Pressure: 1024.9 hPa 1022.2 hPa -
Precipitation: 0.0 mm    
Historical Graphs
 
 
Tabular Data for August 10, 2016
Time Temperature Dew Point Pressure Wind Wind Speed Wind Gust Humidity Rainfall Rate (Hourly)
00:02 14.8 °C 7.1 °C 1022.2 hPa NW 6.4 km/h 8.0 km/h 60 % 0.0 mm
00:07 14.8 °C 7.1 °C 1022.2 hPa NW 8.0 km/h 8.0 km/h 60 % 0.0 mm
00:12 14.8 °C 6.9 °C 1022.2 hPa Calm   8.0 km/h 59 % 0.0 mm
00:17 14.6 °C 6.9 °C 1022.2 hPa NNW 3.2 km/h 8.0 km/h 60 % 0.0 mm
00:22 14.6 °C 6.4 °C 1022.2 hPa NNW 3.2 km/h 8.0 km/h 58 % 0.0 mm
00:27 14.6 °C 6.4 °C 1022.6 hPa NW 8.0 km/h 11.3 km/h 58 % 0.0 mm
00:32 14.8 °C 6.6 °C 1022.6 hPa North 8.0 km/h 11.3 km/h 58 % 0.0 mm
00:42 15.1 °C 6.6 °C 1022.6 hPa NW 12.9 km/h 14.5 km/h 57 % 0.0 mm
00:47 15.0 °C 6.5 °C 1022.6 hPa NNW 9.7 km/h 14.5 km/h 57 % 0.0 mm
00:52 14.9 °C 6.5 °C 1022.6 hPa North 12.9 km/h 14.5 km/h 57 % 0.0 mm
01:02 14.8 °C 6.4 °C 1022.6 hPa NNW 4.8 km/h 16.1 km/h 57 % 0.0 mm
01:07 14.7 °C 6.5 °C 1022.6 hPa NNW 6.4 km/h 16.1 km/h 58 % 0.0 mm
01:12 14.7 °C 6.5 °C 1022.6 hPa North 8.0 km/h 16.1 km/h 58 % 0.0 mm
01:17 14.6 °C 6.7 °C 1022.6 hPa NNW 6.4 km/h 17.7 km/h 59 % 0.0 mm
01:22 14.6 °C 6.7 °C 1022.6 hPa NNE 16.1 km/h 17.7 km/h 59 % 0.0 mm
01:27 14.6 °C 6.7 °C 1022.6 hPa North 8.0 km/h 17.7 km/h 59 % 0.0 mm
01:32 14.4 °C 6.5 °C 1022.6 hPa NW 4.8 km/h 17.7 km/h 59 % 0.0 mm
01:37 14.2 °C 6.5 °C 1022.6 hPa NW 6.4 km/h 17.7 km/h 60 % 0.0 mm
01:42 14.0 °C 6.6 °C 1022.6 hPa NW 3.2 km/h 12.9 km/h 61 % 0.0 mm
01:47 13.9 °C 6.5 °C 1022.6 hPa NNW 3.2 km/h 12.9 km/h 61 % 0.0 mm
01:52 13.8 °C 6.6 °C 1022.6 hPa WNW 1.6 km/h 12.9 km/h 62 % 0.0 mm
01:57 13.7 °C 6.5 °C 1022.6 hPa NW 3.2 km/h 9.7 km/h 62 % 0.0 mm
02:07 13.5 °C 6.6 °C 1022.6 hPa NW 3.2 km/h 8.0 km/h 63 % 0.0 mm
02:12 13.5 °C 6.6 °C 1022.6 hPa NW 4.8 km/h 9.7 km/h 63 % 0.0 mm
02:17 13.4 °C 6.7 °C 1022.6 hPa WNW 3.2 km/h 9.7 km/h 64 % 0.0 mm
02:22 13.4 °C 6.7 °C 1022.6 hPa NW 11.3 km/h 11.3 km/h 64 % 0.0 mm
02:27 13.4 °C 6.5 °C 1022.6 hPa WNW 1.6 km/h 11.3 km/h 63 % 0.0 mm
02:32 13.3 °C 6.6 °C 1022.6 hPa WNW 3.2 km/h 11.3 km/h 64 % 0.0 mm
02:37 13.1 °C 6.4 °C 1022.6 hPa NW 3.2 km/h 11.3 km/h 64 % 0.0 mm
02:42 13.1 °C 6.7 °C 1022.6 hPa WNW 6.4 km/h 8.0 km/h 65 % 0.0 mm
02:47 12.9 °C 6.5 °C 1022.6 hPa WNW 6.4 km/h 8.0 km/h 65 % 0.0 mm
02:52 12.9 °C 6.7 °C 1022.6 hPa WNW 3.2 km/h 8.0 km/h 66 % 0.0 mm
02:57 12.8 °C 6.6 °C 1022.6 hPa WNW 3.2 km/h 8.0 km/h 66 % 0.0 mm
03:02 12.6 °C 6.6 °C 1022.6 hPa NW 3.2 km/h 8.0 km/h 67 % 0.0 mm
03:07 12.6 °C 6.6 °C 1022.6 hPa WNW 3.2 km/h 8.0 km/h 67 % 0.0 mm
03:12 12.4 °C 6.4 °C 1022.6 hPa WNW 6.4 km/h 8.0 km/h 67 % 0.0 mm
03:17 12.3 °C 6.6 °C 1022.6 hPa WNW 4.8 km/h 9.7 km/h 68 % 0.0 mm
03:22 12.3 °C 6.6 °C 1022.6 hPa NW 4.8 km/h 9.7 km/h 68 % 0.0 mm
03:27 12.3 °C 6.6 °C 1022.6 hPa NW 3.2 km/h 9.7 km/h 68 % 0.0 mm
03:32 12.2 °C 6.7 °C 1022.6 hPa NW 4.8 km/h 9.7 km/h 69 % 0.0 mm
03:37 12.2 °C 6.7 °C 1022.6 hPa WNW 3.2 km/h 9.7 km/h 69 % 0.0 mm
03:42 12.1 °C 6.6 °C 1022.6 hPa NNW 4.8 km/h 9.7 km/h 69 % 0.0 mm
03:47 12.0 °C 6.7 °C 1022.6 hPa Calm   8.0 km/h 70 % 0.0 mm
03:52 12.0 °C 6.7 °C 1022.6 hPa NW 4.8 km/h 9.7 km/h 70 % 0.0 mm
03:57 11.9 °C 6.6 °C 1022.6 hPa WNW 1.6 km/h 9.7 km/h 70 % 0.0 mm
04:02 11.9 °C 6.8 °C 1022.6 hPa WNW 3.2 km/h 9.7 km/h 71 % 0.0 mm
04:12 11.8 °C 6.7 °C 1022.6 hPa NW 4.8 km/h 9.7 km/h 71 % 0.0 mm
04:17 11.7 °C 6.8 °C 1022.6 hPa WNW 3.2 km/h 9.7 km/h 72 % 0.0 mm
04:22 11.7 °C 6.8 °C 1022.6 hPa NNW 6.4 km/h 9.7 km/h 72 % 0.0 mm
04:37 11.6 °C 6.9 °C 1022.2 hPa NNW 8.0 km/h 11.3 km/h 73 % 0.0 mm
04:42 11.6 °C 6.9 °C 1022.2 hPa North 6.4 km/h 11.3 km/h 73 % 0.0 mm
04:47 11.5 °C 6.8 °C 1022.2 hPa NNW 4.8 km/h 11.3 km/h 73 % 0.0 mm
04:52 11.4 °C 6.7 °C 1022.2 hPa WNW 3.2 km/h 11.3 km/h 73 % 0.0 mm
04:57 11.3 °C 6.8 °C 1022.2 hPa NNW 3.2 km/h 9.7 km/h 74 % 0.0 mm
05:02 11.2 °C 6.7 °C 1022.2 hPa NNW 6.4 km/h 9.7 km/h 74 % 0.0 mm
05:07 11.2 °C 6.7 °C 1022.2 hPa NW 1.6 km/h 9.7 km/h 74 % 0.0 mm
05:17 11.0 °C 6.9 °C 1022.2 hPa NW 4.8 km/h 8.0 km/h 76 % 0.0 mm
05:22 10.9 °C 6.8 °C 1022.2 hPa NW 1.6 km/h 8.0 km/h 76 % 0.0 mm
05:27 10.9 °C 6.8 °C 1022.2 hPa NW 1.6 km/h 6.4 km/h 76 % 0.0 mm
05:32 10.7 °C 6.6 °C 1022.2 hPa WNW 1.6 km/h 6.4 km/h 76 % 0.0 mm
05:37 10.7 °C 6.8 °C 1022.2 hPa NW 6.4 km/h 9.7 km/h 77 % 0.0 mm
05:42 10.6 °C 6.7 °C 1022.2 hPa NW 3.2 km/h 9.7 km/h 77 % 0.0 mm
05:47 10.6 °C 6.7 °C 1022.2 hPa NNW 3.2 km/h 9.7 km/h 77 % 0.0 mm
05:52 10.5 °C 6.8 °C 1022.2 hPa NW 6.4 km/h 9.7 km/h 78 % 0.0 mm
05:57 10.5 °C 6.8 °C 1022.2 hPa North 3.2 km/h 11.3 km/h 78 % 0.0 mm
06:02 10.4 °C 6.7 °C 1022.2 hPa NW 3.2 km/h 11.3 km/h 78 % 0.0 mm
06:12 10.2 °C 6.7 °C 1022.6 hPa NNW 4.8 km/h 9.7 km/h 79 % 0.0 mm
06:17 10.1 °C 6.8 °C 1022.2 hPa NNW 1.6 km/h 11.3 km/h 80 % 0.0 mm
06:22 10.1 °C 6.8 °C 1022.6 hPa Calm   11.3 km/h 80 % 0.0 mm
06:32 10.0 °C 6.7 °C 1022.6 hPa WNW 1.6 km/h 9.7 km/h 80 % 0.0 mm
06:42 9.8 °C 6.7 °C 1022.6 hPa Calm   8.0 km/h 81 % 0.0 mm
06:52 9.7 °C 6.6 °C 1022.6 hPa Calm   6.4 km/h 81 % 0.0 mm
07:02 9.8 °C 6.7 °C 1022.6 hPa Calm   4.8 km/h 81 % 0.0 mm
07:07 9.9 °C 7.0 °C 1022.9 hPa Calm   3.2 km/h 82 % 0.0 mm
07:12 10.2 °C 7.1 °C 1022.9 hPa Calm   3.2 km/h 81 % 0.0 mm
07:17 10.3 °C 7.2 °C 1022.9 hPa Calm   3.2 km/h 81 % 0.0 mm
07:22 10.7 °C 7.4 °C 1022.9 hPa Calm   3.2 km/h 80 % 0.0 mm
07:32 11.6 °C 7.9 °C 1022.9 hPa Calm   3.2 km/h 78 % 0.0 mm
07:37 12.1 °C 7.8 °C 1022.9 hPa Calm   1.6 km/h 75 % 0.0 mm
07:42 12.2 °C 7.7 °C 1022.9 hPa Calm   1.6 km/h 74 % 0.0 mm
07:47 12.5 °C 8.0 °C 1023.2 hPa Calm   1.6 km/h 74 % 0.0 mm
07:52 12.7 °C 8.0 °C 1022.9 hPa Calm   1.6 km/h 73 % 0.0 mm
07:57 13.2 °C 8.3 °C 1023.2 hPa Calm     72 % 0.0 mm
08:02 13.0 °C 8.3 °C 1023.2 hPa Calm     73 % 0.0 mm
08:12 12.8 °C 8.3 °C 1023.2 hPa Calm   4.8 km/h 74 % 0.0 mm
08:17 13.0 °C 8.3 °C 1023.2 hPa WNW 1.6 km/h 4.8 km/h 73 % 0.0 mm
08:27 13.1 °C 8.6 °C 1023.2 hPa Calm   6.4 km/h 74 % 0.0 mm
08:32 13.3 °C 8.6 °C 1023.2 hPa Calm   6.4 km/h 73 % 0.0 mm
08:37 13.5 °C 8.8 °C 1023.6 hPa Calm   6.4 km/h 73 % 0.0 mm
08:42 13.9 °C 8.7 °C 1023.2 hPa NW 1.6 km/h 6.4 km/h 71 % 0.0 mm
08:47 14.0 °C 8.8 °C 1023.6 hPa Calm   4.8 km/h 71 % 0.0 mm
08:52 14.2 °C 9.0 °C 1023.6 hPa WNW 1.6 km/h 4.8 km/h 71 % 0.0 mm
08:57 14.1 °C 8.9 °C 1023.6 hPa WNW 3.2 km/h 4.8 km/h 71 % 0.0 mm
09:02 14.3 °C 9.1 °C 1023.6 hPa NNW 1.6 km/h 4.8 km/h 71 % 0.0 mm
09:12 14.9 °C 9.5 °C 1023.2 hPa West 1.6 km/h 12.9 km/h 70 % 0.0 mm
09:17 14.9 °C 9.5 °C 1023.6 hPa NNE 9.7 km/h 12.9 km/h 70 % 0.0 mm
09:22 15.0 °C 9.4 °C 1023.6 hPa NNE 9.7 km/h 12.9 km/h 69 % 0.0 mm
09:27 15.1 °C 9.5 °C 1023.6 hPa NNE 12.9 km/h 12.9 km/h 69 % 0.0 mm
09:32 15.2 °C 9.3 °C 1023.6 hPa NE 8.0 km/h 12.9 km/h 68 % 0.0 mm
09:37 15.3 °C 9.4 °C 1023.6 hPa NE 3.2 km/h 16.1 km/h 68 % 0.0 mm
09:42 15.5 °C 9.8 °C 1023.2 hPa Calm   16.1 km/h 69 % 0.0 mm
09:47 15.9 °C 9.6 °C 1023.2 hPa North 6.4 km/h 11.3 km/h 66 % 0.0 mm
09:52 15.8 °C 9.0 °C 1023.2 hPa NNE 9.7 km/h 11.3 km/h 64 % 0.0 mm
10:02 15.8 °C 9.2 °C 1023.2 hPa NNE 9.7 km/h 17.7 km/h 65 % 0.0 mm
10:07 15.9 °C 9.1 °C 1023.2 hPa NE 4.8 km/h 17.7 km/h 64 % 0.0 mm
10:12 16.0 °C 9.0 °C 1023.2 hPa NE 9.7 km/h 17.7 km/h 63 % 0.0 mm
10:17 16.3 °C 8.3 °C 1023.2 hPa NE 12.9 km/h 17.7 km/h 59 % 0.0 mm
10:22 16.3 °C 8.8 °C 1023.2 hPa NE 12.9 km/h 17.7 km/h 61 % 0.0 mm
10:32 16.6 °C 8.8 °C 1023.2 hPa NNE 8.0 km/h 19.3 km/h 60 % 0.0 mm
10:37 16.7 °C 8.6 °C 1023.2 hPa NE 14.5 km/h 19.3 km/h 59 % 0.0 mm
10:42 16.8 °C 9.2 °C 1023.2 hPa NE 12.9 km/h 17.7 km/h 61 % 0.0 mm
10:47 17.0 °C 8.9 °C 1023.2 hPa NNW 8.0 km/h 19.3 km/h 59 % 0.0 mm
10:52 17.2 °C 9.1 °C 1023.2 hPa NNE 3.2 km/h 19.3 km/h 59 % 0.0 mm
10:57 17.4 °C 9.1 °C 1023.2 hPa West 9.7 km/h 19.3 km/h 58 % 0.0 mm
11:02 17.5 °C 9.4 °C 1023.2 hPa North 8.0 km/h 14.5 km/h 59 % 0.0 mm
11:12 17.2 °C 8.6 °C 1023.2 hPa NNE 4.8 km/h 16.1 km/h 57 % 0.0 mm
11:17 16.9 °C 8.6 °C 1023.2 hPa WNW 4.8 km/h 16.1 km/h 58 % 0.0 mm
11:22 16.7 °C 8.1 °C 1023.2 hPa North 6.4 km/h 16.1 km/h 57 % 0.0 mm
11:27 16.7 °C 7.9 °C 1023.2 hPa NW 4.8 km/h 16.1 km/h 56 % 0.0 mm
11:32 17.0 °C 8.4 °C 1023.2 hPa NW 8.0 km/h 12.9 km/h 57 % 0.0 mm
11:37 17.5 °C 8.4 °C 1023.2 hPa North 4.8 km/h 12.9 km/h 55 % 0.0 mm
11:42 17.5 °C 8.6 °C 1023.2 hPa North 8.0 km/h 12.9 km/h 56 % 0.0 mm
11:52 17.3 °C 8.2 °C 1023.2 hPa NNE 6.4 km/h 14.5 km/h 55 % 0.0 mm
11:57 17.6 °C 7.9 °C 1023.2 hPa West 8.0 km/h 14.5 km/h 53 % 0.0 mm
12:02 18.2 °C 8.5 °C 1023.2 hPa North 1.6 km/h 17.7 km/h 53 % 0.0 mm
12:07 18.2 °C 7.9 °C 1023.2 hPa NNW 9.7 km/h 17.7 km/h 51 % 0.0 mm
12:12 17.8 °C 7.8 °C 1023.2 hPa South 1.6 km/h 17.7 km/h 52 % 0.0 mm
12:17 18.1 °C 7.5 °C 1023.2 hPa NE 1.6 km/h 16.1 km/h 50 % 0.0 mm
12:27 18.3 °C 6.8 °C 1023.2 hPa NNE 8.0 km/h 17.7 km/h 47 % 0.0 mm
12:32 18.3 °C 7.4 °C 1022.9 hPa ENE 3.2 km/h 17.7 km/h 49 % 0.0 mm
12:37 18.4 °C 7.5 °C 1023.2 hPa WNW 3.2 km/h 16.1 km/h 49 % 0.0 mm
12:42 18.4 °C 7.2 °C 1023.2 hPa North 9.7 km/h 16.1 km/h 48 % 0.0 mm
12:47 18.7 °C 6.8 °C 1022.9 hPa NE 3.2 km/h 16.1 km/h 46 % 0.0 mm
12:52 18.9 °C 7.3 °C 1022.9 hPa NNW 11.3 km/h 16.1 km/h 47 % 0.0 mm
12:57 18.6 °C 6.4 °C 1022.9 hPa WNW 8.0 km/h 17.7 km/h 45 % 0.0 mm
13:02 18.6 °C 7.1 °C 1022.9 hPa NE 6.4 km/h 17.7 km/h 47 % 0.0 mm
13:07 18.2 °C 6.7 °C 1022.9 hPa WNW 9.7 km/h 19.3 km/h 47 % 0.0 mm
13:12 18.3 °C 7.1 °C 1022.9 hPa NW 1.6 km/h 19.3 km/h 48 % 0.0 mm
13:17 18.9 °C 7.3 °C 1022.6 hPa WNW 8.0 km/h 19.3 km/h 47 % 0.0 mm
13:22 18.9 °C 6.7 °C 1022.9 hPa WNW 16.1 km/h 17.7 km/h 45 % 0.0 mm
13:27 18.6 °C 6.8 °C 1022.9 hPa West 6.4 km/h 22.5 km/h 46 % 0.0 mm
13:32 18.8 °C 6.6 °C 1022.9 hPa West 9.7 km/h 22.5 km/h 45 % 0.0 mm
13:37 19.2 °C 6.7 °C 1022.9 hPa West 8.0 km/h 17.7 km/h 44 % 0.0 mm
13:42 19.3 °C 7.4 °C 1022.9 hPa NNE 9.7 km/h 14.5 km/h 46 % 0.0 mm
13:47 19.8 °C 6.5 °C 1022.9 hPa WNW 4.8 km/h 17.7 km/h 42 % 0.0 mm
13:52 19.7 °C 6.8 °C 1022.9 hPa WNW 4.8 km/h 17.7 km/h 43 % 0.0 mm
13:57 19.7 °C 6.8 °C 1022.6 hPa SW 16.1 km/h 22.5 km/h 43 % 0.0 mm
14:02 19.4 °C 6.2 °C 1022.6 hPa NW 4.8 km/h 22.5 km/h 42 % 0.0 mm
14:07 19.3 °C 7.1 °C 1022.6 hPa West 8.0 km/h 22.5 km/h 45 % 0.0 mm
14:12 19.0 °C 7.1 °C 1022.6 hPa WSW 9.7 km/h 22.5 km/h 46 % 0.0 mm
14:17 18.8 °C 7.2 °C 1022.6 hPa WSW 3.2 km/h 22.5 km/h 47 % 0.0 mm
14:22 18.8 °C 7.2 °C 1022.6 hPa NNE 6.4 km/h 22.5 km/h 47 % 0.0 mm
14:27 18.9 °C 7.3 °C 1022.6 hPa WNW 6.4 km/h 19.3 km/h 47 % 0.0 mm
14:32 18.8 °C 7.2 °C 1022.6 hPa NW 3.2 km/h 24.1 km/h 47 % 0.0 mm
14:37 18.9 °C 7.3 °C 1022.9 hPa WNW 9.7 km/h 24.1 km/h 47 % 0.0 mm
14:42 19.0 °C 7.7 °C 1022.9 hPa WNW 14.5 km/h 24.1 km/h 48 % 0.0 mm
14:47 18.8 °C 7.9 °C 1022.9 hPa NW 12.9 km/h 22.5 km/h 49 % 0.0 mm
14:52 18.6 °C 7.7 °C 1022.9 hPa NW 9.7 km/h 22.5 km/h 49 % 0.0 mm
14:57 18.8 °C 7.9 °C 1022.9 hPa WNW 3.2 km/h 22.5 km/h 49 % 0.0 mm
15:02 19.0 °C 7.7 °C 1022.9 hPa WNW 9.7 km/h 17.7 km/h 48 % 0.0 mm
15:07 19.3 °C 7.4 °C 1022.9 hPa WNW 4.8 km/h 14.5 km/h 46 % 0.0 mm
15:12 19.2 °C 7.6 °C 1022.6 hPa NW 3.2 km/h 19.3 km/h 47 % 0.0 mm
15:17 19.2 °C 7.3 °C 1022.6 hPa WNW 4.8 km/h 19.3 km/h 46 % 0.0 mm
15:22 19.1 °C 7.5 °C 1022.6 hPa SW 3.2 km/h 19.3 km/h 47 % 0.0 mm
15:27 19.0 °C 7.7 °C 1022.6 hPa NW 6.4 km/h 20.9 km/h 48 % 0.0 mm
15:32 19.3 °C 7.7 °C 1022.6 hPa WNW 16.1 km/h 20.9 km/h 47 % 0.0 mm
15:37 19.2 °C 7.6 °C 1022.6 hPa WNW 3.2 km/h 17.7 km/h 47 % 0.0 mm
15:42 19.3 °C 8.0 °C 1022.6 hPa WNW 8.0 km/h 20.9 km/h 48 % 0.0 mm
15:47 19.1 °C 7.8 °C 1022.6 hPa WNW 9.7 km/h 20.9 km/h 48 % 0.0 mm
15:52 19.2 °C 7.6 °C 1022.6 hPa WNW 11.3 km/h 20.9 km/h 47 % 0.0 mm
15:57 19.5 °C 7.6 °C 1022.6 hPa WNW 11.3 km/h 20.9 km/h 46 % 0.0 mm
16:02 19.8 °C 7.5 °C 1022.6 hPa NW 11.3 km/h 20.9 km/h 45 % 0.0 mm
16:12 19.8 °C 7.5 °C 1022.6 hPa WNW 9.7 km/h 22.5 km/h 45 % 0.0 mm
16:17 19.9 °C 6.9 °C 1022.6 hPa West 4.8 km/h 22.5 km/h 43 % 0.0 mm
16:27 20.2 °C 7.2 °C 1022.6 hPa WNW 12.9 km/h 29.0 km/h 43 % 0.0 mm
16:32 19.6 °C 7.3 °C 1022.2 hPa WNW 9.7 km/h 29.0 km/h 45 % 0.0 mm
16:42 20.0 °C 7.7 °C 1022.6 hPa West 8.0 km/h 25.7 km/h 45 % 0.0 mm
16:47 19.6 °C 7.7 °C 1022.6 hPa WNW 6.4 km/h 22.5 km/h 46 % 0.0 mm
16:52 19.3 °C 8.0 °C 1022.6 hPa West 9.7 km/h 22.5 km/h 48 % 0.0 mm
16:57 19.1 °C 7.8 °C 1022.6 hPa WNW 16.1 km/h 19.3 km/h 48 % 0.0 mm
17:02 18.9 °C 8.0 °C 1022.6 hPa West 11.3 km/h 17.7 km/h 49 % 0.0 mm
17:12 18.7 °C 8.1 °C 1022.6 hPa West 6.4 km/h 24.1 km/h 50 % 0.0 mm
17:17 18.7 °C 8.1 °C 1022.6 hPa WNW 6.4 km/h 24.1 km/h 50 % 0.0 mm
17:22 18.6 °C 8.3 °C 1022.6 hPa WNW 9.7 km/h 24.1 km/h 51 % 0.0 mm
17:27 18.6 °C 8.3 °C 1022.6 hPa WNW 3.2 km/h 24.1 km/h 51 % 0.0 mm
17:32 18.5 °C 8.2 °C 1022.6 hPa WNW 16.1 km/h 22.5 km/h 51 % 0.0 mm
17:37 18.5 °C 8.2 °C 1022.6 hPa NW 14.5 km/h 22.5 km/h 51 % 0.0 mm
17:42 18.7 °C 8.4 °C 1022.6 hPa NW 12.9 km/h 22.5 km/h 51 % 0.0 mm
17:47 18.7 °C 8.4 °C 1022.6 hPa NNW 8.0 km/h 22.5 km/h 51 % 0.0 mm
17:52 18.8 °C 8.4 °C 1022.6 hPa West 3.2 km/h 22.5 km/h 51 % 0.0 mm
18:02 18.9 °C 8.0 °C 1022.6 hPa NNW 9.7 km/h 17.7 km/h 49 % 0.0 mm
18:12 18.7 °C 8.1 °C 1022.6 hPa North 6.4 km/h 20.9 km/h 50 % 0.0 mm
18:17 18.6 °C 8.3 °C 1022.6 hPa NW 9.7 km/h 20.9 km/h 51 % 0.0 mm
18:22 18.5 °C 7.9 °C 1022.6 hPa NNW 6.4 km/h 20.9 km/h 50 % 0.0 mm
18:27 18.4 °C 7.8 °C 1022.9 hPa North 8.0 km/h 20.9 km/h 50 % 0.0 mm
18:32 18.3 °C 7.7 °C 1022.9 hPa NW 6.4 km/h 20.9 km/h 50 % 0.0 mm
18:37 18.2 °C 7.6 °C 1022.6 hPa NNW 14.5 km/h 19.3 km/h 50 % 0.0 mm
18:42 18.1 °C 7.2 °C 1022.6 hPa WNW 16.1 km/h 25.7 km/h 49 % 0.0 mm
18:47 18.1 °C 7.2 °C 1022.6 hPa NNW 4.8 km/h 25.7 km/h 49 % 0.0 mm
18:52 18.1 °C 7.5 °C 1022.9 hPa NW 14.5 km/h 25.7 km/h 50 % 0.0 mm
18:57 18.1 °C 7.5 °C 1022.6 hPa WNW 20.9 km/h 24.1 km/h 50 % 0.0 mm
19:02 18.1 °C 7.5 °C 1022.9 hPa NNW 6.4 km/h 22.5 km/h 50 % 0.0 mm
19:12 18.1 °C 7.2 °C 1022.9 hPa North 9.7 km/h 24.1 km/h 49 % 0.0 mm
19:17 18.0 °C 7.1 °C 1022.9 hPa WNW 4.8 km/h 24.1 km/h 49 % 0.0 mm
19:22 18.0 °C 7.1 °C 1022.9 hPa NW 6.4 km/h 20.9 km/h 49 % 0.0 mm
19:27 18.1 °C 7.2 °C 1022.9 hPa NNW 11.3 km/h 16.1 km/h 49 % 0.0 mm
19:32 18.1 °C 7.5 °C 1022.9 hPa NW 8.0 km/h 16.1 km/h 50 % 0.0 mm
19:37 18.1 °C 7.2 °C 1022.9 hPa NNW 11.3 km/h 19.3 km/h 49 % 0.0 mm
19:42 17.8 °C 7.2 °C 1022.9 hPa NNW 6.4 km/h 19.3 km/h 50 % 0.0 mm
19:47 17.7 °C 7.1 °C 1022.9 hPa NW 6.4 km/h 19.3 km/h 50 % 0.0 mm
19:52 17.5 °C 7.2 °C 1023.2 hPa NW 1.6 km/h 17.7 km/h 51 % 0.0 mm
20:02 17.3 °C 7.3 °C 1023.2 hPa NW 3.2 km/h 11.3 km/h 52 % 0.0 mm
20:07 17.4 °C 7.4 °C 1023.2 hPa West 1.6 km/h 11.3 km/h 52 % 0.0 mm
20:12 17.6 °C 7.3 °C 1023.2 hPa NW 3.2 km/h 11.3 km/h 51 % 0.0 mm
20:17 17.4 °C 7.2 °C 1023.2 hPa NW 4.8 km/h 11.3 km/h 51 % 0.0 mm
20:22 17.2 °C 7.3 °C 1023.2 hPa NNE 1.6 km/h 11.3 km/h 52 % 0.0 mm
20:27 17.1 °C 7.4 °C 1023.2 hPa NNW 6.4 km/h 11.3 km/h 53 % 0.0 mm
20:32 16.9 °C 7.3 °C 1023.2 hPa North 3.2 km/h 11.3 km/h 53 % 0.0 mm
20:37 16.8 °C 7.2 °C 1023.2 hPa WNW 4.8 km/h 14.5 km/h 53 % 0.0 mm
20:42 16.7 °C 7.3 °C 1023.2 hPa North 3.2 km/h 14.5 km/h 54 % 0.0 mm
20:47 16.6 °C 7.3 °C 1023.2 hPa NW 4.8 km/h 14.5 km/h 54 % 0.0 mm
20:52 16.4 °C 7.3 °C 1023.2 hPa NW 1.6 km/h 9.7 km/h 55 % 0.0 mm
20:57 16.3 °C 7.2 °C 1023.6 hPa NNW 1.6 km/h 9.7 km/h 55 % 0.0 mm
21:02 16.1 °C 7.3 °C 1023.6 hPa NW 4.8 km/h 9.7 km/h 56 % 0.0 mm
21:12 15.7 °C 6.9 °C 1023.6 hPa North 3.2 km/h 6.4 km/h 56 % 0.0 mm
21:17 15.4 °C 6.9 °C 1023.6 hPa NW 3.2 km/h 6.4 km/h 57 % 0.0 mm
21:22 15.3 °C 7.1 °C 1023.6 hPa NNW 4.8 km/h 6.4 km/h 58 % 0.0 mm
21:27 15.2 °C 7.0 °C 1023.9 hPa NNW 3.2 km/h 6.4 km/h 58 % 0.0 mm
21:32 15.1 °C 7.1 °C 1023.9 hPa NNW 4.8 km/h 6.4 km/h 59 % 0.0 mm
21:37 14.9 °C 7.0 °C 1023.9 hPa NNW 4.8 km/h 8.0 km/h 59 % 0.0 mm
21:42 14.9 °C 7.2 °C 1023.9 hPa NW 3.2 km/h 8.0 km/h 60 % 0.0 mm
21:47 14.8 °C 7.1 °C 1024.3 hPa NW 3.2 km/h 8.0 km/h 60 % 0.0 mm
21:52 14.8 °C 7.1 °C 1024.3 hPa NNW 3.2 km/h 6.4 km/h 60 % 0.0 mm
22:02 14.7 °C 7.3 °C 1024.3 hPa NW 3.2 km/h 6.4 km/h 61 % 0.0 mm
22:07 14.7 °C 7.3 °C 1024.3 hPa NW 4.8 km/h 6.4 km/h 61 % 0.0 mm
22:12 14.7 °C 7.3 °C 1024.3 hPa NW 3.2 km/h 6.4 km/h 61 % 0.0 mm
22:17 14.4 °C 7.0 °C 1024.3 hPa NW 1.6 km/h 6.4 km/h 61 % 0.0 mm
22:22 14.3 °C 7.1 °C 1024.6 hPa NW 3.2 km/h 6.4 km/h 62 % 0.0 mm
22:27 14.2 °C 7.3 °C 1024.6 hPa NW 1.6 km/h 3.2 km/h 63 % 0.0 mm
22:32 14.1 °C 7.2 °C 1024.6 hPa NW 1.6 km/h 3.2 km/h 63 % 0.0 mm
22:37 14.2 °C 7.3 °C 1024.3 hPa WNW 3.2 km/h 4.8 km/h 63 % 0.0 mm
22:42 14.3 °C 7.1 °C 1024.6 hPa NW 1.6 km/h 6.4 km/h 62 % 0.0 mm
22:47 14.3 °C 7.1 °C 1024.6 hPa West 1.6 km/h 8.0 km/h 62 % 0.0 mm
22:52 14.4 °C 7.2 °C 1024.6 hPa NW 4.8 km/h 9.7 km/h 62 % 0.0 mm
22:57 14.4 °C 7.2 °C 1024.6 hPa NNW 3.2 km/h 9.7 km/h 62 % 0.0 mm
23:07 14.1 °C 7.2 °C 1024.6 hPa NNW 3.2 km/h 8.0 km/h 63 % 0.0 mm
23:12 13.9 °C 7.0 °C 1024.6 hPa NNW 3.2 km/h 8.0 km/h 63 % 0.0 mm
23:17 13.7 °C 6.8 °C 1024.6 hPa NNW 3.2 km/h 8.0 km/h 63 % 0.0 mm
23:22 13.6 °C 6.9 °C 1024.6 hPa NW 1.6 km/h 8.0 km/h 64 % 0.0 mm
23:37 13.4 °C 7.0 °C 1024.6 hPa NW 3.2 km/h 6.4 km/h 65 % 0.0 mm
23:42 13.4 °C 7.0 °C 1024.6 hPa North 6.4 km/h 8.0 km/h 65 % 0.0 mm
23:52 13.2 °C 7.0 °C 1024.9 hPa NW 4.8 km/h 8.0 km/h 66 % 0.0 mm
23:57 13.1 °C 6.9 °C 1024.9 hPa NW 3.2 km/h 8.0 km/h 66 % 0.0 mm
Meteo18
Compliments of Weather Underground - 4 mb

Script developed by  Jim McMurry - jmcmurry@mwt.net Adapted for the template by  Wim van der Kuil - Leuven-Template.eu

You find our weather info also at:

European Weather Network

Weather Underground

Equipment we use:

Weather-station
Davis Vue

Weather-program
Meteohub

Weather-server
Raspberry PI 2 B+

Provider
1 and 1

Davis Vue

Meteohub

Raspberry PI 2 B+

1 and 1